Dewpoint
55 55 54 54 54 54 55 55 55 55 56 56 56 56 57 58 58 58 58 58 58 58 58 58 58 58 58 57 57 57 58 54 52 52 50 45 52 53 63 59 62 65 64 46 59 62 58 54 53 54 51 53 52 50 52 57 60 61 61 57 55 55 53 54 55 60 62 62 63 65 66 65 64 67 67 70 68 67 67 67 68 67 63 64 65 66 66 66
56 55 54 54 54 54 54 55 55 55 55 56 56 56 56 57 58 58 58 58 58 57 58 58 58 58 58 58 58 58 57 54 51 50 48 54 58 60 62 60 65 63 61 42 50 56 53 51 49 50 52 50 51 49 51 51 58 58 57 56 55 53 54 57 60 63 63 63 64 65 66 65 65 67 68 65 65 66 65 66 66 62 63 65 65 65 65 66
55 55 54 54 54 54 55 55 55 55 55 55 56 56 56 57 57 57 57 58 57 58 58 58 58 58 58 58 58 58 54 52 52 50 51 63 60 61 63 65 65 66 52 42 38 41 45 47 44 49 52 49 50 48 51 50 56 58 57 54 55 55 56 62 60 63 64 64 65 65 66 66 66 68 69 65 65 65 63 63 64 61 62 63 64 65 65 65
54 54 54 54 54 54 55 55 55 55 55 55 55 56 56 56 56 57 57 57 57 57 57 58 59 59 58 58 59 55 54 52 44 46 50 65 62 64 64 65 69 67 43 39 38 36 38 41 46 51 51 50 49 50 49 50 54 54 56 53 53 55 54 57 62 62 65 65 65 65 66 66 67 68 68 66 64 64 64 63 62 61 61 63 64 64 64 64
54 53 54 54 54 54 55 55 55 55 55 55 55 55 55 56 56 56 56 57 57 57 57 58 59 59 59 59 58 53 50 34 41 48 54 68 66 65 65 69 68 53 36 36 35 35 35 37 43 52 51 49 49 49 49 51 53 51 53 54 52 53 54 62 64 65 65 66 65 65 64 64 68 67 67 65 61 62 63 63 63 61 62 63 63 63 63 64
53 53 53 54 54 54 54 55 55 55 55 55 55 55 55 55 55 56 56 56 57 57 58 59 59 60 59 59 55 55 44 29 37 42 73 71 69 68 66 69 68 50 38 34 32 33 33 34 39 46 48 48 48 48 49 50 52 50 50 49 48 50 50 63 63 65 65 65 64 64 64 66 66 65 68 65 64 67 70 63 63 62 62 63 63 63 63 63
53 53 53 54 54 54 54 54 54 54 54 55 55 55 55 55 55 55 55 56 56 57 58 58 59 60 59 58 55 51 40 35 44 41 71 71 69 68 68 67 68 45 40 34 32 30 31 35 37 41 44 47 47 48 49 49 52 51 49 49 47 48 49 61 62 65 65 64 64 65 65 65 65 64 67 66 68 68 69 67 64 62 63 63 62 62 62 63
53 53 54 54 54 54 54 54 54 54 54 54 54 55 55 54 55 55 55 56 56 57 57 58 60 60 58 55 46 39 44 37 40 44 73 68 63 64 67 65 58 47 41 36 31 28 31 36 37 41 42 45 47 47 49 49 49 48 49 49 48 47 47 61 63 64 65 64 65 64 63 65 64 64 66 66 68 69 67 69 63 62 63 63 62 62 62 62
54 54 54 54 54 54 54 54 54 54 54 54 54 54 54 55 55 55 56 56 56 57 57 58 60 60 58 50 37 37 36 40 47 54 71 68 63 64 63 61 55 47 43 39 34 29 33 33 39 42 42 42 44 44 47 47 45 46 46 46 44 43 43 61 62 64 64 63 64 62 64 65 65 66 65 67 67 67 68 66 62 62 62 62 62 62 62 62
54 54 54 53 53 53 53 54 53 54 54 54 54 54 54 54 55 55 56 56 56 57 57 58 60 60 56 50 44 33 31 40 48 67 64 64 65 62 57 58 56 48 44 42 35 29 33 35 37 40 43 43 44 43 45 46 45 41 37 36 37 39 48 61 61 62 63 62 63 62 63 64 65 62 61 65 65 66 65 64 62 62 62 62 62 62 62 62
53 54 53 53 53 53 53 54 54 54 54 54 54 54 54 55 55 55 56 56 56 57 58 58 60 58 51 50 38 34 39 31 53 63 64 65 63 59 55 62 58 49 44 44 36 30 31 38 38 40 43 39 39 39 43 42 40 32 31 29 24 22 58 60 61 62 62 62 62 63 63 64 64 64 60 64 64 65 64 63 62 61 62 62 62 62 63 62
53 53 53 53 53 53 53 53 53 54 54 54 54 54 54 54 55 55 55 56 56 57 58 58 61 56 52 47 42 34 44 37 46 61 64 64 60 57 56 61 57 50 45 43 41 34 30 33 39 39 39 39 36 38 37 38 35 32 31 27 20 49 58 60 61 61 61 61 62 63 61 61 62 61 64 63 64 64 64 63 63 61 61 62 62 62 62 62
53 53 53 53 53 53 53 54 54 54 54 54 54 54 54 54 55 55 55 55 56 57 58 60 60 56 50 42 43 46 46 45 45 59 61 62 60 60 60 61 57 49 45 41 41 40 34 33 37 35 36 36 36 36 37 38 35 31 30 22 20 48 56 59 60 61 60 60 62 59 52 55 59 61 62 63 63 62 64 62 62 61 61 61 61 61 61 62
53 53 53 53 53 53 53 53 54 54 54 54 54 54 54 54 54 55 55 55 56 56 58 61 58 55 49 40 42 49 49 49 47 53 59 61 56 58 60 61 56 49 45 40 41 40 38 35 37 36 36 34 33 39 36 32 30 28 27 23 21 33 51 58 59 60 58 61 61 57 49 52 57 61 62 63 63 62 62 62 62 61 60 61 61 61 61 61
52 53 52 53 53 53 53 53 54 53 54 54 53 53 53 53 54 55 56 56 56 57 59 60 57 51 48 47 49 51 62 59 45 38 46 58 56 45 56 59 55 49 45 41 38 36 37 35 35 33 32 36 35 35 32 28 27 27 26 24 21 15 18 56 59 60 57 60 61 57 49 51 55 59 61 62 63 62 61 61 61 61 60 60 60 60 60 61
53 53 52 53 53 53 53 53 53 54 53 53 53 53 53 54 55 56 56 57 57 58 59 56 55 52 47 43 44 55 42 40 34 40 32 50 50 28 51 57 56 52 46 43 40 38 35 35 35 38 38 42 37 33 29 30 29 28 24 24 23 16 21 51 57 59 58 60 60 57 47 54 54 59 61 61 62 62 60 60 60 61 60 60 60 60 60 60
53 53 53 53 53 53 53 53 54 54 53 53 52 53 54 55 56 57 58 58 58 59 57 49 55 54 39 46 48 42 35 28 30 25 23 31 26 26 49 49 50 51 45 40 39 38 41 39 44 45 41 39 36 30 30 30 29 29 25 25 23 17 17 32 43 58 58 59 57 59 55 54 55 58 61 60 61 62 61 59 59 60 60 60 60 60 60 60
52 53 53 53 53 53 53 53 53 53 52 52 52 52 52 55 59 58 59 59 57 57 54 50 52 46 34 37 34 32 39 30 24 22 22 27 21 28 41 43 41 45 39 38 42 35 41 40 41 38 36 34 30 30 31 30 30 28 26 25 22 20 16 15 40 53 57 58 56 57 56 54 55 57 60 60 61 61 61 60 59 59 60 60 59 60 60 60
52 52 53 53 53 53 53 53 53 52 52 52 52 54 54 55 54 50 51 53 49 46 44 46 42 34 25 32 37 36 36 23 23 19 18 19 27 23 33 34 41 39 39 39 39 39 41 40 40 39 37 33 31 29 29 29 27 25 24 24 24 20 19 15 16 29 56 56 55 55 55 54 54 57 59 60 61 60 60 60 59 59 59 60 60 60 60 60
52 52 53 53 53 53 53 53 52 52 51 50 48 47 37 30 27 36 44 50 45 32 36 45 42 44 39 35 36 27 24 23 18 18 19 22 18 18 19 26 38 40 40 39 38 39 41 38 36 37 38 35 33 30 28 28 28 28 28 28 26 24 25 24 22 26 56 55 54 53 54 53 53 56 58 59 60 60 60 60 59 59 59 59 59 60 60 61
53 52 53 53 53 53 53 53 52 51 51 49 48 36 28 33 26 24 27 28 38 38 34 35 45 40 34 35 36 35 16 12 20 19 20 50 18 15 16 25 35 35 38 37 37 40 40 38 38 37 37 36 33 31 30 30 29 28 28 27 26 26 24 25 23 21 52 53 51 52 52 52 52 56 57 59 59 58 59 60 60 60 60 60 60 60 60 61
52 53 53 53 53 53 53 52 52 51 50 46 44 29 30 32 30 29 28 26 28 28 31 33 35 33 32 34 34 34 21 14 10 10 14 22 18 14 18 29 34 33 36 34 35 37 36 36 37 38 37 36 35 32 30 29 29 28 27 26 26 25 25 23 21 20 28 50 41 42 49 49 52 56 58 58 59 59 59 60 60 60 60 60 60 60 60 60
52 53 53 53 53 52 52 52 51 50 48 42 38 33 30 31 31 33 30 28 26 29 28 28 27 26 26 26 23 25 20 11 8 11 15 23 18 16 22 25 31 33 35 33 32 34 35 34 35 36 36 35 34 33 32 30 28 27 26 27 25 25 22 20 19 18 24 37 32 35 42 48 56 58 58 58 58 59 59 59 60 61 60 60 60 61 61 61
52 53 53 53 53 52 52 51 50 46 43 42 41 35 34 32 33 32 29 25 23 24 27 27 26 24 22 20 17 12 12 10 10 10 33 18 16 19 23 24 28 32 33 32 31 32 33 32 34 35 33 33 33 33 32 30 29 28 26 26 25 25 22 21 21 18 20 34 41 50 52 53 56 56 57 58 58 59 59 59 59 60 61 61 61 61 62 61
53 53 53 53 52 52 50 50 43 42 43 42 41 38 36 38 36 33 30 28 27 27 29 28 31 24 16 17 16 9 10 12 8 14 33 18 20 19 20 28 28 28 31 33 31 30 30 31 31 32 31 30 31 30 30 30 29 28 28 26 26 24 23 20 18 17 21 37 47 46 43 46 53 56 57 58 57 57 58 58 58 58 59 60 60 61 62 63
53 53 53 53 53 51 50 41 41 43 43 37 34 35 39 40 37 37 31 26 22 23 23 23 17 19 17 13 13 12 9 14 8 10 32 19 37 17 24 17 28 24 28 31 32 32 31 32 29 28 29 29 28 28 29 30 28 28 27 26 25 23 22 20 18 18 18 30 43 48 38 41 49 54 56 57 57 57 58 58 58 58 58 59 59 60 61 61
53 53 53 53 52 50 41 36 43 44 34 33 36 39 40 40 41 34 31 29 22 24 22 20 14 14 19 14 12 10 4 4 15 18 18 39 18 28 14 15 19 21 26 26 31 27 28 28 28 27 27 27 27 26 27 27 26 25 26 22 22 22 20 19 18 16 20 32 33 27 43 43 44 51 55 56 57 57 57 58 58 58 58 58 59 59 60 61
53 53 52 52 51 50 46 46 45 39 37 37 41 40 40 41 39 33 32 22 20 23 14 14 14 18 17 14 11 8 10 14 14 16 19 19 23 17 15 16 15 15 16 19 25 23 24 24 25 24 26 25 25 26 27 26 24 25 26 24 21 20 19 19 18 17 20 28 37 30 46 40 43 47 54 55 55 56 56 57 58 58 58 58 58 59 60 61
53 53 52 52 51 50 50 47 45 39 41 43 42 40 41 41 32 29 26 20 21 18 19 16 20 17 16 13 10 14 12 17 12 14 19 16 16 16 12 16 16 15 15 13 12 14 16 16 22 24 22 22 24 25 25 25 24 25 25 26 25 23 24 20 19 22 26 18 21 24 32 35 37 40 52 54 54 55 55 56 57 58 58 58 58 58 59 60
53 53 52 51 49 49 47 49 47 45 45 44 40 40 43 36 32 31 25 15 18 11 16 16 14 13 14 11 12 13 10 12 16 16 14 14 18 16 16 18 12 13 13 14 14 13 12 34 23 17 19 20 22 23 25 25 25 27 23 23 22 26 26 36 34 30 24 16 22 24 20 24 18 35 50 51 52 54 55 56 57 58 58 58 59 59 59 59
53 52 51 50 47 47 45 38 39 43 44 40 41 40 36 36 35 28 16 17 20 16 16 15 14 15 12 10 9 13 12 14 11 13 7 14 18 18 19 14 18 15 21 18 8 10 16 14 12 15 29 21 21 19 22 25 25 24 21 17 18 21 26 25 28 28 16 17 28 27 21 13 12 21 38 52 53 54 54 55 55 57 57 58 59 59 59 59
51 50 50 49 49 49 37 33 35 40 42 42 42 34 32 28 26 21 24 25 16 14 14 13 16 13 13 14 12 12 10 10 13 9 7 15 17 17 17 17 23 11 15 19 10 18 14 14 14 15 40 14 14 19 19 23 23 22 27 27 18 20 22 16 20 15 14 15 19 24 19 17 21 24 39 49 51 52 54 54 55 56 57 58 58 59 59 60
50 49 49 50 51 49 49 45 46 44 43 43 37 34 31 27 19 23 25 19 16 21 15 24 13 15 13 10 11 14 12 8 14 16 20 21 20 20 18 16 17 17 19 27 18 15 14 18 15 13 14 19 16 18 19 17 18 19 19 24 18 16 15 13 22 21 20 19 22 23 22 19 24 23 28 44 50 51 52 53 54 55 57 58 58 59 59 60
49 49 48 51 50 49 50 52 49 46 44 46 33 32 24 21 24 29 22 20 18 20 19 17 15 14 13 9 13 14 15 19 20 20 21 22 17 17 17 16 17 15 19 22 13 16 11 9 12 12 11 14 14 12 11 18 18 17 19 17 20 21 17 15 18 14 14 16 19 23 15 16 14 37 51 48 44 50 52 52 53 54 56 58 59 59 59 60
49 49 49 50 51 51 51 50 49 50 44 34 28 21 19 22 29 18 19 18 19 18 16 16 15 12 11 12 13 12 14 17 19 19 19 18 18 18 17 16 17 18 19 15 22 23 14 16 17 16 13 16 14 16 16 16 17 17 19 20 18 20 29 17 22 22 23 17 17 20 18 23 32 48 54 54 54 54 53 52 52 53 55 57 58 59 60 60
48 49 50 49 52 51 50 50 49 46 36 31 26 23 17 22 20 18 18 20 19 16 14 15 16 14 14 15 17 15 11 17 19 20 19 18 18 18 19 18 17 21 17 14 18 13 24 15 16 16 16 15 16 18 16 18 15 20 18 19 21 21 26 28 34 32 25 22 19 29 25 25 26 31 52 53 53 54 54 53 53 52 50 56 58 59 60 60
49 50 46 49 50 50 50 49 47 41 37 33 22 24 35 23 24 22 30 18 15 16 14 15 16 14 14 15 16 16 15 14 14 14 18 20 18 18 18 19 19 21 23 20 16 17 13 14 13 17 15 15 17 18 18 16 16 15 14 13 16 23 23 21 14 22 24 15 18 24 32 41 42 37 50 52 52 53 52 52 52 53 53 52 57 59 60 60
48 49 53 50 44 46 47 46 40 38 36 31 28 32 25 23 25 24 24 20 18 17 15 15 17 18 17 18 16 16 17 15 17 18 18 19 17 20 20 19 19 20 23 23 17 21 16 10 10 17 19 17 17 18 13 14 17 14 12 20 24 19 18 26 21 16 15 15 17 20 31 41 42 45 49 51 52 51 51 51 52 52 53 54 52 58 60 61
49 47 34 30 33 37 45 41 39 36 32 26 30 32 30 24 25 24 24 24 22 19 17 17 16 17 24 16 19 18 18 17 18 19 20 19 18 20 22 22 21 22 22 23 21 26 22 10 14 15 18 18 19 17 15 15 18 19 24 19 22 23 27 21 20 25 19 18 18 15 30 35 38 37 48 51 53 51 50 50 51 51 52 54 55 54 59 60
47 38 28 31 35 39 46 45 35 33 25 24 28 24 26 24 24 24 23 24 21 19 18 19 18 17 17 17 18 17 20 20 19 19 20 21 19 22 22 23 24 25 23 26 22 25 23 23 13 15 19 17 14 19 17 18 16 18 17 16 17 20 24 19 22 21 21 20 19 19 27 32 35 35 41 52 53 51 50 50 50 50 51 52 54 56 57 60
48 39 29 32 39 40 34 33 31 28 28 28 26 29 27 24 23 23 24 24 22 23 19 18 18 17 18 19 18 19 20 22 22 21 21 22 22 21 23 23 25 26 27 28 23 25 27 25 19 21 16 17 17 22 22 20 20 18 17 16 16 15 19 18 17 24 23 22 17 20 26 32 33 31 33 52 53 51 50 50 49 49 50 51 53 55 57 59
36 28 29 36 38 32 30 28 34 33 25 24 23 25 29 31 23 22 24 25 24 23 24 21 22 23 22 19 21 21 21 22 23 23 23 23 25 24 25 26 25 28 28 28 29 26 30 30 22 19 20 18 19 21 25 23 22 20 18 16 17 15 17 23 20 23 26 26 30 26 27 29 38 33 37 52 54 51 51 50 49 49 49 50 51 52 56 59
44 35 38 42 36 30 26 26 38 31 24 25 26 23 24 23 23 23 24 26 24 25 24 24 24 24 26 26 25 25 24 24 24 24 28 26 25 26 28 27 27 29 30 28 29 24 34 25 17 20 25 23 24 25 26 23 21 20 20 17 16 14 14 15 20 27 26 27 26 27 30 28 35 32 43 53 55 53 51 50 49 49 49 49 50 51 53 55
44 44 40 38 35 32 26 26 27 29 27 25 24 23 25 24 24 25 26 27 27 25 25 26 26 26 27 27 28 28 28 25 27 27 26 30 26 28 28 29 29 29 30 29 29 25 19 25 19 18 17 18 18 24 23 25 23 21 19 18 17 16 15 18 27 29 31 27 22 26 22 29 29 31 47 54 55 56 53 50 49 49 49 49 49 50 50 52
44 44 46 42 37 30 27 28 27 25 26 24 24 24 24 24 26 25 27 27 28 27 27 26 28 27 26 28 28 29 29 26 28 30 28 31 30 31 28 30 32 31 34 36 39 34 24 27 23 15 14 12 12 18 20 21 23 22 21 18 18 16 16 16 16 23 23 31 27 27 26 33 28 34 52 53 54 55 55 51 50 49 49 48 49 49 50 50
37 30 34 34 34 31 32 35 29 28 29 31 25 25 25 26 27 29 28 28 29 28 28 32 28 27 27 27 28 28 29 30 29 29 32 28 29 29 29 30 33 31 36 38 40 34 28 30 27 25 22 19 23 25 29 30 25 21 21 19 18 18 20 21 25 26 19 23 20 25 30 24 23 43 50 52 52 53 55 53 50 49 48 48 48 49 49 49
41 35 34 33 35 31 30 30 31 31 29 31 26 27 25 26 28 30 30 28 31 30 29 28 28 26 27 28 29 29 31 31 32 31 30 30 32 31 32 32 33 38 37 36 41 34 32 25 27 28 28 27 28 28 26 28 24 22 20 19 19 19 20 23 19 18 25 21 20 33 34 24 27 46 49 51 51 51 53 52 51 49 48 48 48 48 51 48
32 36 38 38 29 29 29 28 29 31 34 29 29 31 27 25 26 28 29 34 35 32 28 29 28 32 32 29 31 29 32 31 31 29 33 31 32 29 28 29 29 39 36 30 37 30 27 23 26 26 26 26 25 26 26 30 24 24 21 20 20 20 21 21 23 25 26 19 16 25 28 30 42 44 48 48 49 49 50 51 51 49 48 48 48 47 47 47
40 41 40 43 32 32 32 32 32 29 32 38 37 31 28 26 27 27 28 31 32 29 33 26 28 31 34 35 32 29 30 27 27 32 30 28 30 29 25 30 30 30 27 32 34 37 26 25 28 25 26 26 26 26 26 24 24 25 25 25 23 21 21 20 19 18 18 23 25 22 27 36 43 43 45 48 48 48 48 51 51 49 48 48 47 47 47 47
40 39 37 43 38 33 32 31 33 30 29 36 31 31 31 29 27 27 30 28 28 28 35 28 28 32 34 35 34 31 31 31 29 27 32 28 28 29 25 27 24 27 30 30 33 32 22 25 30 26 25 25 27 30 26 25 26 25 25 24 23 22 21 20 19 18 26 23 26 27 29 35 44 44 44 45 49 47 47 48 50 50 49 48 47 47 47 47
44 44 43 38 34 38 41 35 31 31 29 31 29 32 35 30 29 30 27 31 28 27 31 27 30 32 36 34 32 31 33 33 32 29 29 28 26 30 25 28 27 27 32 30 33 33 28 25 29 27 22 22 26 27 25 27 26 24 23 24 24 25 27 26 23 29 27 25 32 33 34 40 43 43 44 43 45 46 46 47 48 50 50 49 48 48 48 47
46 46 45 39 33 40 31 33 33 31 29 31 36 32 33 31 32 32 27 32 35 33 31 30 33 28 30 30 29 29 30 29 28 27 29 28 27 28 28 30 31 29 29 29 33 29 30 28 25 25 23 23 25 27 28 25 16 11 19 26 37 36 38 39 42 43 43 42 37 30 32 42 43 45 42 43 43 45 45 46 46 48 51 52 50 49 48 48